Flag for Brazil Weather past 2 weeks in Curitiba, Paraná, Brazil

Now
54 °F

Passing clouds.


Feels Like: 54 °F
Forecast: 55 / 68 °F
Wind: 2 mph from Southeast

Location: Curitiba Aeroporto

Current Time: Apr 26, 2015 at 12:43:53 AM

Latest Report: Apr 25, 2015 at 11:00 PM


Visibility: N/A

Pressure: 30.24 "Hg

Humidity: 94%

Dew point: 52 °F

Location of CuritibaLocation

Historic Weather in Curitiba — Graph

°F

Curitiba temperature yesterday

Maximum temperature yesterday: 70 °F (at 1:00 PM)
Minimum temperature yesterday: 54 °F (at 11:00 PM)
Average temperature yesterday: 60 °F

Past Weeks' High & Low Weather Summary

 TemperatureHumidityPressure
High82 °F (Apr 20, 2:00 PM)100% (Apr 11, 4:00 AM)30.27 "Hg (Apr 11, 4:00 AM)
Low54 °F (Apr 25, 11:00 PM)34% (Apr 11, 3:00 PM)29.92 "Hg (Apr 20, 3:00 PM)
Average65 °F84%30.11 "Hg
* Reported Apr 10 11:00 PM — Apr 25 11:00 PM, Curitiba, Weather by CustomWeather, © 2015

Note: Actual official high and low records may vary slightly from our data, if they occured in-between our weather recording intervals... More about our weather records

Advertising

Curitiba weather history for previous 24 hours

 ConditionsComfort  
Time TempWeatherWind HumidityBarometerVisibility
11:00 PM
Sat, Apr 25
54 °FPassing clouds.2 mph94%30.24 "HgN/A
10:00 PM55 °FPassing clouds.5 mph88%30.24 "HgN/A
9:00 PM55 °FClear.10 mph94%30.24 "Hg10 mi
8:00 PM57 °FPassing clouds.9 mph88%30.24 "HgN/A
7:00 PM57 °FPassing clouds.9 mph88%30.21 "HgN/A
6:00 PM59 °FPassing clouds.13 mph88%30.21 "HgN/A
5:00 PM63 °FPassing clouds.12 mph77%30.21 "HgN/A
4:00 PM66 °FPartly sunny.12 mph68%30.18 "HgN/A
3:00 PM68 °FPartly sunny.10 mph64%30.18 "HgN/A
2:00 PM68 °FPartly sunny.10 mph53%30.18 "HgN/A
1:00 PM70 °FPartly sunny.5 mph46%30.21 "HgN/A
12:00 PM68 °FPartly sunny.8 mph53%30.24 "HgN/A
11:00 AM66 °FPartly sunny.7 mph60%30.24 "HgN/A
10:00 AM64 °FPartly sunny.8 mph68%30.27 "HgN/A
9:00 AM61 °FBroken clouds.6 mph88%30.24 "HgN/A
8:00 AM57 °FBroken clouds.5 mph100%30.24 "Hg4 mi
7:00 AM55 °FPassing clouds.No wind94%30.21 "HgN/A
6:00 AM55 °FScattered clouds.No wind100%30.18 "HgN/A
5:00 AM55 °FPassing clouds.1 mph100%30.18 "Hg6 mi
4:00 AM57 °FPartly cloudy.2 mph94%30.18 "Hg5 mi
3:00 AM57 °FPartly cloudy.2 mph100%30.18 "Hg4 mi
2:00 AM57 °FPassing clouds.2 mph94%30.18 "HgN/A
1:00 AM59 °FPassing clouds.3 mph94%30.21 "HgN/A
12:00 AM61 °FPassing clouds.8 mph94%30.18 "HgN/A
Weather by CustomWeather, © 2015

See weather overviewHow to use our weather pages